| time (UTC) | temp F | wind direction | speed MPH | gust MPH | rain 1hr in | rain 24hr in | rain mn in | humidity % | barometer mb |
| 20260508222551 | 78 | 84 | 3.0 | 6.0 | 0.00 | 0.09 | 0.09 | 83 | 1008.2 |
| 20260508221612 | 78 | 116 | 4.0 | 8.0 | 0.00 | 0.09 | 0.09 | 83 | 1008.3 |
| 20260508221053 | 78 | 146 | 3.0 | 5.0 | 0.00 | 0.09 | 0.09 | 83 | 1008.3 |
| 20260508220121 | 77 | 172 | 2.0 | 5.0 | 0.00 | 0.09 | 0.09 | 83 | 1008.3 |
| 20260508215602 | 77 | 171 | 2.0 | 7.0 | 0.00 | 0.09 | 0.09 | 84 | 1008.3 |
| 20260508215113 | 77 | 181 | 4.0 | 7.0 | 0.00 | 0.09 | 0.09 | 84 | 1008.4 |
| 20260508214530 | 77 | 144 | 3.0 | 7.0 | 0.00 | 0.09 | 0.09 | 83 | 1008.6 |
| 20260508213615 | 77 | 165 | 5.0 | 8.0 | 0.00 | 0.09 | 0.09 | 83 | 1008.6 |
| 20260508213024 | 77 | 146 | 3.0 | 5.0 | 0.00 | 0.09 | 0.09 | 83 | 1008.6 |
| 20260508212606 | 77 | 140 | 3.0 | 7.0 | 0.00 | 0.09 | 0.09 | 83 | 1008.7 |
| 20260508212116 | 77 | 138 | 4.0 | 7.0 | 0.00 | 0.09 | 0.09 | 83 | 1008.7 |
| 20260508211523 | 77 | 114 | 2.0 | 7.0 | 0.00 | 0.09 | 0.09 | 84 | 1008.8 |
| 20260508211028 | 77 | 100 | 4.0 | 7.0 | 0.00 | 0.09 | 0.09 | 84 | 1008.8 |
| 20260508210638 | 76 | 144 | 3.0 | 6.0 | 0.00 | 0.09 | 0.09 | 84 | 1008.8 |
| 20260508210036 | 76 | 182 | 2.0 | 4.0 | 0.00 | 0.09 | 0.09 | 84 | 1008.9 |
| 20260508205545 | 76 | 182 | 2.0 | 5.0 | 0.00 | 0.09 | 0.09 | 84 | 1009.0 |
| 20260508204606 | 76 | 143 | 3.0 | 7.0 | 0.00 | 0.09 | 0.09 | 84 | 1009.1 |
| 20260508204055 | 76 | 142 | 3.0 | 5.0 | 0.00 | 0.09 | 0.09 | 84 | 1009.2 |
| 20260508203052 | 76 | 139 | 2.0 | 8.0 | 0.00 | 0.09 | 0.09 | 84 | 1009.2 |
| 20260508202605 | 76 | 150 | 5.0 | 8.0 | 0.00 | 0.09 | 0.09 | 84 | 1009.3 |
| 20260508202108 | 76 | 121 | 3.0 | 7.0 | 0.00 | 0.09 | 0.09 | 85 | 1009.4 |
| 20260508201534 | 75 | 173 | 4.0 | 11.0 | 0.00 | 0.09 | 0.09 | 84 | 1009.5 |
| 20260508201034 | 75 | 176 | 6.0 | 11.0 | 0.00 | 0.09 | 0.09 | 84 | 1009.7 |
| 20260508195522 | 75 | 140 | 3.0 | 5.0 | 0.00 | 0.09 | 0.09 | 84 | 1009.9 |
| 20260508195032 | 76 | 107 | 3.0 | 9.0 | 0.00 | 0.09 | 0.09 | 84 | 1009.9 |
| 20260508194612 | 76 | 90 | 4.0 | 9.0 | 0.00 | 0.09 | 0.09 | 85 | 1009.7 |
| 20260508194024 | 75 | 87 | 3.0 | 8.0 | 0.00 | 0.09 | 0.09 | 85 | 1009.8 |
| 20260508193607 | 75 | 145 | 4.0 | 8.0 | 0.00 | 0.09 | 0.09 | 85 | 1009.9 |
| 20260508193039 | 75 | 145 | 3.0 | 9.0 | 0.00 | 0.09 | 0.09 | 86 | 1009.9 |
| 20260508192543 | 74 | 159 | 6.0 | 9.0 | 0.00 | 0.09 | 0.09 | 85 | 1010.0 |
| 20260508191542 | 74 | 137 | 3.0 | 5.0 | 0.00 | 0.09 | 0.09 | 85 | 1010.1 |
| 20260508191051 | 74 | 108 | 3.0 | 4.0 | 0.00 | 0.09 | 0.09 | 85 | 1010.3 |
| 20260508190048 | 74 | 105 | 3.0 | 7.0 | 0.00 | 0.09 | 0.09 | 85 | 1010.4 |
| 20260508185558 | 74 | 91 | 4.0 | 7.0 | 0.00 | 0.09 | 0.09 | 86 | 1010.3 |
| 20260508184619 | 74 | 63 | 4.0 | 6.0 | 0.00 | 0.09 | 0.09 | 87 | 1010.4 |
| 20260508184102 | 73 | 99 | 1.0 | 7.0 | 0.00 | 0.09 | 0.09 | 86 | 1010.6 |
| 20260508183045 | 73 | 98 | 3.0 | 8.0 | 0.00 | 0.09 | 0.09 | 86 | 1010.8 |
| 20260508182534 | 73 | 83 | 3.0 | 8.0 | 0.00 | 0.09 | 0.09 | 87 | 1010.9 |
| 20260508181555 | 72 | 80 | 4.0 | 8.0 | 0.00 | 0.09 | 0.09 | 86 | 1010.9 |
| 20260508181107 | 72 | 26 | 4.0 | 6.0 | 0.00 | 0.09 | 0.09 | 87 | 1010.9 |
| 20260508180610 | 72 | 71 | 3.0 | 6.0 | 0.00 | 0.09 | 0.09 | 87 | 1011.0 |
| 20260508180034 | 71 | 119 | 3.0 | 8.0 | 0.00 | 0.09 | 0.09 | 87 | 1011.0 |
| 20260508175547 | 71 | 110 | 4.0 | 6.0 | 0.00 | 0.09 | 0.09 | 88 | 1011.1 |
| 20260508175031 | 70 | 113 | 3.0 | 7.0 | 0.00 | 0.09 | 0.09 | 88 | 1011.1 |
| 20260508174613 | 70 | 113 | 4.0 | 7.0 | 0.00 | 0.09 | 0.09 | 88 | 1011.1 |
| 20260508174027 | 70 | 138 | 3.0 | 7.0 | 0.00 | 0.09 | 0.09 | 88 | 1011.3 |
| 20260508173049 | 70 | 124 | 3.0 | 5.0 | 0.00 | 0.09 | 0.09 | 88 | 1011.4 |
| 20260508172600 | 70 | 128 | 3.0 | 8.0 | 0.00 | 0.09 | 0.09 | 88 | 1011.4 |
| 20260508172103 | 70 | 130 | 4.0 | 8.0 | 0.00 | 0.09 | 0.09 | 88 | 1011.5 |
| 20260508171530 | 69 | 120 | 3.0 | 6.0 | 0.00 | 0.09 | 0.09 | 88 | 1011.4 |
| 20260508171026 | 69 | 126 | 4.0 | 6.0 | 0.00 | 0.09 | 0.09 | 88 | 1011.6 |
| 20260508170053 | 69 | 137 | 2.0 | 7.0 | 0.00 | 0.09 | 0.09 | 88 | 1011.9 |
| 20260508165556 | 69 | 138 | 3.0 | 7.0 | 0.00 | 0.09 | 0.09 | 88 | 1012.0 |
| 20260508164621 | 68 | 145 | 2.0 | 7.0 | 0.00 | 0.09 | 0.09 | 88 | 1012.1 |
| 20260508164111 | 68 | 146 | 4.0 | 7.0 | 0.00 | 0.09 | 0.09 | 88 | 1012.1 |
| 20260508163620 | 68 | 159 | 3.0 | 5.0 | 0.00 | 0.09 | 0.09 | 88 | 1012.1 |
| 20260508163041 | 68 | 129 | 3.0 | 8.0 | 0.00 | 0.09 | 0.09 | 88 | 1012.0 |
| 20260508162551 | 68 | 77 | 4.0 | 10.0 | 0.00 | 0.09 | 0.09 | 88 | 1012.0 |
| 20260508161611 | 68 | 69 | 6.0 | 10.0 | 0.00 | 0.09 | 0.09 | 89 | 1011.8 |
| 20260508161041 | 68 | 70 | 6.0 | 10.0 | 0.00 | 0.09 | 0.09 | 89 | 1011.9 |
| 20260508155608 | 67 | 76 | 7.0 | 10.0 | 0.00 | 0.09 | 0.09 | 89 | 1011.9 |
| 20260508155119 | 67 | 62 | 5.0 | 9.0 | 0.00 | 0.09 | 0.09 | 89 | 1012.1 |
| 20260508154546 | 67 | 108 | 7.0 | 10.0 | 0.00 | 0.09 | 0.09 | 89 | 1012.2 |
| 20260508154049 | 67 | 87 | 7.0 | 13.0 | 0.00 | 0.09 | 0.09 | 89 | 1012.1 |
| 20260508153049 | 67 | 63 | 7.0 | 10.0 | 0.00 | 0.09 | 0.09 | 88 | 1012.1 |
| 20260508152533 | 67 | 84 | 6.0 | 12.0 | 0.00 | 0.09 | 0.09 | 89 | 1012.3 |
| 20260508151559 | 67 | 137 | 6.0 | 10.0 | 0.00 | 0.09 | 0.09 | 89 | 1012.3 |
| 20260508151045 | 66 | 84 | 6.0 | 10.0 | 0.00 | 0.09 | 0.09 | 89 | 1012.5 |
| 20260508150105 | 66 | 96 | 5.0 | 10.0 | 0.00 | 0.09 | 0.09 | 90 | 1012.6 |
| 20260508145616 | 66 | 80 | 5.0 | 9.0 | 0.00 | 0.09 | 0.09 | 90 | 1012.6 |
| 20260508145115 | 65 | 105 | 4.0 | 8.0 | 0.00 | 0.09 | 0.09 | 90 | 1012.8 |
| 20260508144525 | 65 | 85 | 5.0 | 8.0 | 0.00 | 0.09 | 0.09 | 90 | 1012.8 |
| 20260508144138 | 65 | 68 | 3.0 | 9.0 | 0.00 | 0.09 | 0.09 | 90 | 1012.8 |
| 20260508143621 | 65 | 77 | 7.0 | 9.0 | 0.00 | 0.09 | 0.09 | 90 | 1012.6 |
| 20260508143045 | 65 | 78 | 5.0 | 7.0 | 0.00 | 0.09 | 0.09 | 90 | 1012.7 |
| 20260508142555 | 64 | 78 | 5.0 | 6.0 | 0.00 | 0.09 | 0.09 | 91 | 1012.8 |
| 20260508141615 | 64 | 82 | 4.0 | 8.0 | 0.00 | 0.09 | 0.09 | 91 | 1012.6 |
| 20260508141122 | 64 | 80 | 3.0 | 8.0 | 0.00 | 0.09 | 0.09 | 91 | 1012.6 |
| 20260508140612 | 64 | 29 | 5.0 | 8.0 | 0.00 | 0.09 | 0.09 | 91 | 1012.5 |
| 20260508135530 | 64 | 71 | 6.0 | 8.0 | 0.00 | 0.09 | 0.09 | 91 | 1012.6 |
| 20260508134551 | 63 | 68 | 3.0 | 6.0 | 0.00 | 0.09 | 0.09 | 91 | 1012.8 |
| 20260508134101 | 63 | 53 | 3.0 | 6.0 | 0.00 | 0.09 | 0.09 | 90 | 1012.8 |
| 20260508133604 | 63 | 69 | 3.0 | 5.0 | 0.00 | 0.09 | 0.09 | 90 | 1012.8 |
| 20260508133034 | 63 | 75 | 3.0 | 5.0 | 0.00 | 0.09 | 0.09 | 90 | 1012.7 |
| 20260508132545 | 63 | 55 | 3.0 | 5.0 | 0.00 | 0.09 | 0.09 | 90 | 1012.6 |
| 20260508131605 | 63 | 49 | 2.0 | 6.0 | 0.00 | 0.09 | 0.09 | 90 | 1012.7 |
| 20260508131109 | 63 | 48 | 4.0 | 6.0 | 0.00 | 0.09 | 0.09 | 90 | 1012.8 |
| 20260508130553 | 63 | 37 | 2.0 | 6.0 | 0.00 | 0.09 | 0.09 | 90 | 1012.8 |
| 20260508130024 | 63 | 23 | 4.0 | 8.0 | 0.00 | 0.09 | 0.09 | 90 | 1012.9 |
| 20260508125526 | 63 | 40 | 3.0 | 8.0 | 0.00 | 0.09 | 0.09 | 89 | 1012.8 |
| 20260508124545 | 63 | 38 | 2.0 | 5.0 | 0.08 | 0.09 | 0.09 | 89 | 1012.9 |
| 20260508124054 | 63 | 39 | 2.0 | 5.0 | 0.08 | 0.09 | 0.09 | 89 | 1012.9 |
| 20260508123557 | 63 | 321 | 1.0 | 3.0 | 0.09 | 0.09 | 0.09 | 89 | 1012.9 |
| 20260508123030 | 63 | 321 | 1.0 | 2.0 | 0.09 | 0.09 | 0.09 | 88 | 1013.0 |
| 20260508122542 | 63 | 327 | 0.0 | 3.0 | 0.09 | 0.09 | 0.09 | 88 | 1013.0 |
| 20260508121601 | 63 | 327 | 2.0 | 3.0 | 0.09 | 0.09 | 0.09 | 88 | 1013.2 |
| 20260508121114 | 63 | 327 | 0.0 | 1.0 | 0.09 | 0.09 | 0.09 | 87 | 1013.2 |
| 20260508120616 | 63 | 327 | 0.0 | 2.0 | 0.09 | 0.09 | 0.09 | 87 | 1013.2 |
| 20260508120022 | 63 | 327 | 1.0 | 3.0 | 0.09 | 0.09 | 0.09 | 87 | 1013.2 |
| 20260508115525 | 63 | 327 | 1.0 | 3.0 | 0.09 | 0.09 | 0.09 | 87 | 1013.1 |
| 20260508115041 | 63 | 327 | 1.0 | 4.0 | 0.09 | 0.09 | 0.09 | 86 | 1012.9 |
| 20260508114524 | 64 | 323 | 2.0 | 4.0 | 0.05 | 0.05 | 0.05 | 86 | 1012.7 |
| 20260508114036 | 64 | 304 | 3.0 | 6.0 | 0.01 | 0.01 | 0.01 | 85 | 1012.9 |
| 20260508113620 | 64 | 310 | 3.0 | 6.0 | 0.01 | 0.01 | 0.01 | 85 | 1013.0 |
| 20260508113045 | 64 | 350 | 1.0 | 4.0 | 0.00 | 0.00 | 0.00 | 85 | 1012.5 |
| 20260508112558 | 64 | 10 | 0.0 | 1.0 | 0.00 | 0.00 | 0.00 | 85 | 1012.7 |
| 20260508112117 | 64 | 10 | 0.0 | 3.0 | 0.00 | 0.00 | 0.00 | 85 | 1012.6 |
| 20260508111540 | 64 | 5 | 0.0 | 4.0 | 0.00 | 0.00 | 0.00 | 85 | 1012.6 |
| 20260508111025 | 64 | 355 | 2.0 | 4.0 | 0.00 | 0.00 | 0.00 | 84 | 1012.6 |
| 20260508110045 | 64 | 342 | 0.0 | 5.0 | 0.00 | 0.00 | 0.00 | 85 | 1012.4 |
| 20260508105555 | 64 | 355 | 3.0 | 5.0 | 0.00 | 0.00 | 0.00 | 85 | 1012.4 |
| 20260508104620 | 64 | 24 | 2.0 | 5.0 | 0.00 | 0.00 | 0.00 | 84 | 1012.4 |
| 20260508104109 | 64 | 32 | 2.0 | 5.0 | 0.00 | 0.00 | 0.00 | 85 | 1012.4 |
| 20260508103612 | 64 | 34 | 3.0 | 5.0 | 0.00 | 0.00 | 0.00 | 84 | 1012.5 |
| 20260508103039 | 64 | 57 | 3.0 | 5.0 | 0.00 | 0.00 | 0.00 | 84 | 1012.7 |
| 20260508102549 | 64 | 53 | 3.0 | 5.0 | 0.00 | 0.00 | 0.00 | 85 | 1012.8 |
| 20260508101542 | 64 | 48 | 2.0 | 5.0 | 0.00 | 0.00 | 0.00 | 84 | 1012.9 |
| 20260508101053 | 64 | 60 | 3.0 | 6.0 | 0.00 | 0.00 | 0.00 | 84 | 1012.7 |
| 20260508100051 | 64 | 74 | 4.0 | 5.0 | 0.00 | 0.00 | 0.00 | 84 | 1012.6 |
| 20260508095604 | 64 | 32 | 3.0 | 4.0 | 0.00 | 0.00 | 0.00 | 84 | 1012.7 |
| 20260508094604 | 64 | 30 | 4.0 | 8.0 | 0.00 | 0.00 | 0.00 | 84 | 1012.6 |
| 20260508094103 | 64 | 36 | 3.0 | 8.0 | 0.00 | 0.00 | 0.00 | 84 | 1012.4 |
| 20260508093109 | 64 | 32 | 3.0 | 5.0 | 0.00 | 0.00 | 0.00 | 84 | 1012.7 |
| 20260508092612 | 64 | 30 | 3.0 | 5.0 | 0.00 | 0.00 | 0.00 | 84 | 1012.7 |
| 20260508091559 | 64 | 37 | 2.0 | 5.0 | 0.00 | 0.00 | 0.00 | 84 | 1012.7 |
| 20260508091101 | 64 | 48 | 3.0 | 5.0 | 0.00 | 0.00 | 0.00 | 84 | 1012.7 |
| 20260508090049 | 64 | 59 | 2.0 | 5.0 | 0.00 | 0.00 | 0.00 | 84 | 1012.3 |
| 20260508085559 | 64 | 53 | 1.0 | 5.0 | 0.00 | 0.00 | 0.00 | 84 | 1012.3 |
| 20260508084622 | 64 | 49 | 3.0 | 5.0 | 0.00 | 0.00 | 0.00 | 84 | 1012.3 |
| 20260508084111 | 63 | 42 | 3.0 | 7.0 | 0.00 | 0.00 | 0.00 | 84 | 1012.6 |
| 20260508083614 | 63 | 45 | 4.0 | 7.0 | 0.00 | 0.00 | 0.00 | 84 | 1012.5 |
| 20260508083024 | 63 | 53 | 3.0 | 9.0 | 0.00 | 0.00 | 0.00 | 84 | 1012.2 |
| 20260508082535 | 63 | 55 | 4.0 | 9.0 | 0.00 | 0.00 | 0.00 | 84 | 1012.0 |
| 20260508081556 | 63 | 70 | 3.0 | 4.0 | 0.00 | 0.00 | 0.00 | 84 | 1012.2 |
| 20260508081059 | 63 | 49 | 2.0 | 9.0 | 0.00 | 0.00 | 0.00 | 84 | 1012.4 |
| 20260508080604 | 63 | 46 | 3.0 | 9.0 | 0.00 | 0.00 | 0.00 | 84 | 1012.5 |
| 20260508075523 | 63 | 29 | 4.0 | 6.0 | 0.00 | 0.00 | 0.00 | 84 | 1012.8 |
| 20260508075113 | 63 | 355 | 3.0 | 6.0 | 0.00 | 0.00 | 0.00 | 84 | 1012.6 |
| 20260508074535 | 63 | 42 | 4.0 | 6.0 | 0.00 | 0.00 | 0.00 | 84 | 1012.7 |
| 20260508074049 | 63 | 60 | 3.0 | 5.0 | 0.00 | 0.00 | 0.00 | 84 | 1012.9 |
| 20260508073110 | 63 | 38 | 2.0 | 6.0 | 0.00 | 0.00 | 0.00 | 84 | 1013.1 |
| 20260508072558 | 63 | 38 | 3.0 | 6.0 | 0.00 | 0.00 | 0.00 | 84 | 1013.2 |
| 20260508071619 | 63 | 360 | 2.0 | 4.0 | 0.00 | 0.00 | 0.00 | 84 | 1013.5 |
| 20260508071131 | 63 | 342 | 2.0 | 5.0 | 0.00 | 0.00 | 0.00 | 84 | 1013.7 |
| 20260508070613 | 63 | 336 | 3.0 | 5.0 | 0.00 | 0.00 | 0.00 | 84 | 1013.8 |
| 20260508070038 | 63 | 344 | 4.0 | 5.0 | 0.00 | 0.00 | 0.00 | 84 | 1013.9 |
| 20260508065545 | 63 | 18 | 3.0 | 5.0 | 0.00 | 0.00 | 0.00 | 84 | 1013.8 |
| 20260508065028 | 63 | 25 | 2.0 | 5.0 | 0.00 | 0.00 | 0.00 | 84 | 1013.5 |
| 20260508064529 | 63 | 27 | 2.0 | 5.0 | 0.00 | 0.00 | 0.00 | 84 | 1013.4 |
| 20260508064039 | 63 | 360 | 3.0 | 5.0 | 0.00 | 0.00 | 0.00 | 84 | 1013.5 |
| 20260508063523 | 63 | 351 | 2.0 | 9.0 | 0.00 | 0.00 | 0.00 | 84 | 1013.4 |
| 20260508063043 | 63 | 349 | 5.0 | 9.0 | 0.00 | 0.00 | 0.00 | 84 | 1013.4 |
| 20260508062531 | 63 | 329 | 4.0 | 9.0 | 0.00 | 0.00 | 0.00 | 84 | 1013.6 |
| 20260508062040 | 63 | 33 | 5.0 | 9.0 | 0.00 | 0.00 | 0.00 | 84 | 1013.2 |
| 20260508061531 | 63 | 22 | 5.0 | 9.0 | 0.00 | 0.00 | 0.00 | 84 | 1012.7 |
| 20260508061040 | 63 | 31 | 4.0 | 6.0 | 0.00 | 0.00 | 0.00 | 84 | 1012.7 |
| 20260508060528 | 63 | 49 | 4.0 | 6.0 | 0.00 | 0.00 | 0.00 | 84 | 1012.8 |
| 20260508060022 | 63 | 25 | 3.0 | 5.0 | 0.00 | 0.00 | 0.00 | 84 | 1013.1 |
| 20260508055533 | 63 | 27 | 3.0 | 5.0 | 0.00 | 0.00 | 0.00 | 84 | 1013.4 |
| 20260508055042 | 63 | 55 | 2.0 | 4.0 | 0.00 | 0.00 | 0.00 | 84 | 1013.5 |
| 20260508054602 | 63 | 61 | 1.0 | 4.0 | 0.00 | 0.00 | 0.00 | 84 | 1013.5 |
| 20260508054023 | 63 | 61 | 2.0 | 8.0 | 0.00 | 0.00 | 0.00 | 84 | 1013.2 |
| 20260508053530 | 63 | 36 | 4.0 | 9.0 | 0.00 | 0.00 | 0.00 | 84 | 1013.1 |
| 20260508053022 | 63 | 322 | 5.0 | 6.0 | 0.00 | 0.00 | 0.00 | 84 | 1013.8 |
| 20260508052530 | 63 | 340 | 3.0 | 5.0 | 0.00 | 0.00 | 0.00 | 84 | 1013.5 |
| 20260508052041 | 63 | 342 | 1.0 | 5.0 | 0.00 | 0.00 | 0.00 | 83 | 1013.1 |
| 20260508051540 | 63 | 340 | 2.0 | 5.0 | 0.00 | 0.00 | 0.00 | 84 | 1013.3 |
| 20260508051041 | 63 | 336 | 2.0 | 5.0 | 0.00 | 0.00 | 0.00 | 83 | 1013.4 |
| 20260508050531 | 63 | 331 | 3.0 | 8.0 | 0.00 | 0.00 | 0.00 | 84 | 1013.5 |
| 20260508045524 | 63 | 323 | 4.0 | 6.0 | 0.00 | 0.00 | 0.00 | 83 | 1014.0 |
| 20260508044542 | 63 | 337 | 2.0 | 4.0 | 0.00 | 0.00 | 0.00 | 83 | 1013.9 |
| 20260508044038 | 63 | 337 | 3.0 | 6.0 | 0.00 | 0.00 | 0.00 | 82 | 1013.8 |
| 20260508043617 | 63 | 339 | 3.0 | 6.0 | 0.00 | 0.00 | 0.00 | 82 | 1013.8 |
| 20260508043048 | 64 | 46 | 3.0 | 4.0 | 0.00 | 0.00 | 0.00 | 82 | 1013.8 |
| 20260508042558 | 64 | 49 | 2.0 | 3.0 | 0.00 | 0.00 | 0.00 | 81 | 1013.8 |
| 20260508042058 | 64 | 49 | 1.0 | 4.0 | 0.00 | 0.00 | 0.00 | 81 | 1013.7 |
| 20260508041529 | 64 | 49 | 3.0 | 4.0 | 0.00 | 0.00 | 0.00 | 81 | 1013.7 |
| 20260508041034 | 64 | 50 | 3.0 | 4.0 | 0.00 | 0.00 | 0.00 | 81 | 1013.9 |
| 20260508035604 | 64 | 74 | 3.0 | 3.0 | 0.00 | 0.00 | 0.00 | 80 | 1013.6 |
| 20260508035115 | 64 | 75 | 2.0 | 5.0 | 0.00 | 0.00 | 0.00 | 80 | 1013.4 |
| 20260508034536 | 64 | 75 | 4.0 | 5.0 | 0.00 | 0.00 | 0.00 | 80 | 1013.2 |
| 20260508034048 | 64 | 92 | 2.0 | 8.0 | 0.00 | 0.00 | 0.00 | 79 | 1013.2 |
| 20260508033029 | 64 | 69 | 6.0 | 10.0 | 0.00 | 0.00 | 0.00 | 79 | 1012.8 |
| 20260508032541 | 64 | 72 | 6.0 | 10.0 | 0.00 | 0.00 | 0.00 | 79 | 1012.7 |
| 20260508031556 | 64 | 71 | 6.0 | 9.0 | 0.00 | 0.00 | 0.00 | 79 | 1013.1 |
| 20260508031059 | 64 | 67 | 3.0 | 8.0 | 0.00 | 0.00 | 0.00 | 79 | 1013.0 |
| 20260508030610 | 64 | 59 | 3.0 | 10.0 | 0.00 | 0.00 | 0.00 | 78 | 1013.1 |
| 20260508030135 | 64 | 61 | 8.0 | 11.0 | 0.00 | 0.00 | 0.00 | 78 | 1012.8 |
| 20260508025624 | 64 | 76 | 8.0 | 11.0 | 0.00 | 0.00 | 0.00 | 78 | 1012.5 |
| 20260508024624 | 64 | 54 | 3.0 | 7.0 | 0.00 | 0.00 | 0.00 | 78 | 1012.7 |
| 20260508024119 | 64 | 26 | 3.0 | 8.0 | 0.00 | 0.00 | 0.00 | 78 | 1013.5 |
| 20260508023119 | 64 | 20 | 5.0 | 9.0 | 0.00 | 0.00 | 0.00 | 78 | 1013.3 |
| 20260508022609 | 64 | 38 | 2.0 | 4.0 | 0.00 | 0.00 | 0.00 | 78 | 1013.6 |
| 20260508022112 | 64 | 51 | 3.0 | 5.0 | 0.00 | 0.00 | 0.00 | 78 | 1013.5 |
| 20260508021538 | 64 | 78 | 4.0 | 5.0 | 0.00 | 0.00 | 0.00 | 78 | 1013.4 |
| 20260508021041 | 64 | 81 | 3.0 | 6.0 | 0.00 | 0.00 | 0.00 | 78 | 1013.0 |
| 20260508020041 | 65 | 74 | 5.0 | 7.0 | 0.00 | 0.00 | 0.00 | 78 | 1013.0 |
| 20260508015553 | 65 | 69 | 4.0 | 6.0 | 0.00 | 0.00 | 0.00 | 78 | 1013.0 |
| 20260508014617 | 65 | 74 | 4.0 | 6.0 | 0.00 | 0.00 | 0.00 | 78 | 1013.1 |
| 20260508014105 | 65 | 47 | 3.0 | 4.0 | 0.00 | 0.00 | 0.00 | 77 | 1013.4 |
| 20260508013127 | 65 | 29 | 2.0 | 6.0 | 0.00 | 0.00 | 0.00 | 77 | 1013.9 |
| 20260508012610 | 65 | 5 | 4.0 | 6.0 | 0.00 | 0.00 | 0.00 | 76 | 1013.9 |
| 20260508012120 | 66 | 13 | 4.0 | 6.0 | 0.00 | 0.00 | 0.00 | 76 | 1013.7 |
| 20260508011548 | 66 | 355 | 4.0 | 6.0 | 0.00 | 0.00 | 0.00 | 76 | 1013.7 |
| 20260508011054 | 66 | 5 | 3.0 | 4.0 | 0.00 | 0.00 | 0.00 | 76 | 1013.6 |
| 20260508010114 | 66 | 37 | 3.0 | 4.0 | 0.00 | 0.00 | 0.00 | 75 | 1013.5 |
| 20260508005530 | 67 | 38 | 2.0 | 6.0 | 0.00 | 0.00 | 0.00 | 74 | 1013.6 |
| 20260508004551 | 67 | 351 | 3.0 | 7.0 | 0.00 | 0.00 | 0.00 | 74 | 1013.7 |
| 20260508004104 | 67 | 348 | 3.0 | 7.0 | 0.00 | 0.00 | 0.00 | 74 | 1013.5 |
| 20260508003609 | 67 | 38 | 4.0 | 8.0 | 0.00 | 0.00 | 0.00 | 74 | 1013.4 |
| 20260508003035 | 67 | 51 | 3.0 | 8.0 | 0.00 | 0.00 | 0.00 | 74 | 1013.4 |
| 20260508002548 | 67 | 19 | 2.0 | 9.0 | 0.00 | 0.00 | 0.00 | 74 | 1013.5 |
| 20260508002109 | 67 | 350 | 5.0 | 9.0 | 0.00 | 0.00 | 0.00 | 73 | 1013.7 |
| 20260508001541 | 68 | 350 | 4.0 | 10.0 | 0.00 | 0.00 | 0.00 | 73 | 1013.6 |
| 20260508001046 | 68 | 32 | 5.0 | 10.0 | 0.00 | 0.00 | 0.00 | 73 | 1013.8 |
| 20260508000047 | 68 | 37 | 7.0 | 9.0 | 0.00 | 0.00 | 0.00 | 72 | 1013.7 |
| 20260507235556 | 68 | 25 | 4.0 | 8.0 | 0.00 | 0.00 | 0.00 | 72 | 1013.9 |
| 20260507234616 | 68 | 348 | 4.0 | 9.0 | 0.00 | 0.00 | 0.00 | 72 | 1014.0 |
| 20260507234108 | 68 | 39 | 4.0 | 11.0 | 0.00 | 0.00 | 0.00 | 72 | 1014.3 |
| 20260507233109 | 69 | 316 | 6.0 | 11.0 | 0.00 | 0.00 | 0.00 | 70 | 1014.2 |
| 20260507232557 | 69 | 28 | 6.0 | 11.0 | 0.00 | 0.00 | 0.00 | 71 | 1014.1 |
| 20260507231535 | 68 | 16 | 6.0 | 11.0 | 0.00 | 0.00 | 0.00 | 71 | 1013.9 |
| 20260507231043 | 68 | 46 | 4.0 | 13.0 | 0.00 | 0.00 | 0.00 | 71 | 1013.9 |
| 20260507230044 | 68 | 5 | 4.0 | 13.0 | 0.00 | 0.00 | 0.00 | 71 | 1013.9 |
| 20260507225556 | 68 | 44 | 7.0 | 13.0 | 0.00 | 0.00 | 0.00 | 70 | 1014.1 |
| 20260507224557 | 69 | 5 | 9.0 | 14.0 | 0.00 | 0.00 | 0.00 | 70 | 1014.6 |
| 20260507224107 | 69 | 355 | 7.0 | 12.0 | 0.00 | 0.00 | 0.00 | 71 | 1014.3 |
| 20260507223612 | 69 | 323 | 7.0 | 13.0 | 0.00 | 0.00 | 0.00 | 72 | 1014.3 |
| 20260507223040 | 68 | 341 | 9.0 | 14.0 | 0.00 | 0.00 | 0.00 | 71 | 1014.2 |